Regional Weather Roundup
Issued by NWS

Home | Current Version | Previous Version | Text Only | Print | Product List | Glossary Off
Versions: 1 2 3 4 5 6 7 8 9 10 11 12 13 14 15 16 17 18 19 20 21 22 23 24 25 26 27 28 29 30 31 32 33 34 35 36

000
ASUS43 KDMX 262207
RWRIA

WEATHER ROUNDUP FOR IOWA
NATIONAL WEATHER SERVICE DES MOINES IA
400 PM CST FRI DEC 26 2014

NOTE: "FAIR" INDICATES FEW OR NO CLOUDS BELOW 12,000 FEET WITH NO
SIGNIFICANT WEATHER AND/OR OBSTRUCTIONS TO VISIBILITY.

* - THESE STATIONS ARE NOT NWS STATIONS...THUS NOT UNDER NWS
QUALITY CONTROL.  THEY ALSO DO NOT REPORT WEATHER SUCH
AS PRECIPITATION OR FOG.

IAZ001>003-012>014-020>022-031>034-043>046-262300-
   NORTHWEST IOWA

CITY           SKY/WX    TMP DP  RH WIND       PRES   REMARKS
CARROLL *      CLOUDY    32  32 100 NE14      29.97S FOG     WCI  22
CHEROKEE *     CLOUDY    30  28  93 N14       30.01R WCI  20
DENISON *      CLOUDY    32  32 100 N10       29.98R WCI  24
LE MARS *      CLOUDY    30  27  86 N12G18    30.05R WCI  21
ORANGE CITY *  CLOUDY    30  25  80 N9        30.03R WCI  22
SHELDON *      CLOUDY    28  28 100 N15G21    30.01R WCI  17
SIOUX CITY     CLOUDY    32  26  78 N14       30.04R WCI  22
SPENCER        CLOUDY    31  26  82 N17       30.01R WCI  19
STORM LAKE *   CLOUDY    30  28  93 N15       30.00R WCI  19
$$

IAZ055>058-069>071-079>083-090>094-262300-
   SOUTHWEST IOWA

CITY           SKY/WX    TMP DP  RH WIND       PRES   REMARKS
ATLANTIC *     CLOUDY    34  32  93 NE10      29.98R FOG     WCI  26
AUDUBON *      CLOUDY    32  28  86 NE7       29.98S FOG     WCI  26
CLARINDA *     CLOUDY    36  34  93 NE7       29.98S FOG     WCI  30
COUNCIL BLFS * CLOUDY    32  32 100 N10G16    29.96S WCI  24
CRESTON *      CLOUDY    32  32 100 N8        29.96R FOG     WCI  25
HARLAN  *      CLOUDY    32  32 100 N9        30.03R FOG     WCI  24
LAMONI         CLOUDY    39  33  79 N7        29.94S WCI  34
RED OAK *      CLOUDY    34  32  93 N12       29.96F FOG     WCI  25
SHENANDOAH *   CLOUDY    36  34  93 N12       29.98S FOG     WCI  27
$$

IAZ047>049-059>061-072>074-084-262300-
   CENTRAL IOWA

CITY           SKY/WX    TMP DP  RH WIND       PRES   REMARKS
AMES           CLOUDY    33  31  92 NE10      29.95R FOG     WCI  25
ANKENY *       CLOUDY    34  34 100 N7        29.97R FOG     WCI  28
CHARITON *     CLEAR     37  32  81 N6        29.96R WCI  33
DES MOINES     CLOUDY    35  31  85 N5        29.98R FOG     WCI  31
GRINNELL*      CLOUDY    37  34  87 NW7       29.95R WCI  32
KNOXVILLE *    MOCLDY    36  32  87 NW7       29.95R WCI  30
MARSHALLTOWN   CLOUDY    34  32  92 N9        29.96R WCI  27
PELLA *        CLOUDY    37  34  87 NW3       29.97R
PERRY *        CLOUDY    34  34 100 N8        29.99R FOG     WCI  27
$$

IAZ004>006-015-016-023>025-035-036-262300-
   NORTH CENTRAL IOWA

CITY           SKY/WX    TMP DP  RH WIND       PRES   REMARKS
ALGONA *       CLOUDY    32  32 100 N14G21    29.98S WCI  22
CLARION *      CLOUDY    32  32 100 NE12G17   29.98R FOG     WCI  23
ESTHERVILLE    CLOUDY    30  27  88 N18       29.99R WCI  18
FORT DODGE *   CLOUDY    32  28  86 N12       29.99R WCI  23
MASON CITY     CLOUDY    32  30  92 N13       29.97S FOG     WCI  22
FOREST CITY *  CLOUDY    32  32 100 N10       29.98R FOG     WCI  24
IOWA FALLS *   CLOUDY    34  32  93 N9        29.97R FOG     WCI  26
$$

IAZ007>011-017>019-026>030-037>042-050>054-066-262300-
   NORTHEAST IOWA

CITY           SKY/WX    TMP DP  RH WIND       PRES   REMARKS
CEDAR RAPIDS   MOCLDY    43  35  73 SW3       29.94R
CHARLES CITY * CLOUDY    34  34 100 N12       29.96S FOG     WCI  25
CLINTON *      PTCLDY    48  37  66 S5        29.97F
DECORAH *      PTCLDY    37  34  87 N6        29.94R WCI  33
DUBUQUE        CLOUDY    42  35  76 S5        29.94S
MONTICELLO *   CLEAR     45  37  76 S5        29.96R
OELWEIN *      MOCLDY    39  36  87 N5        29.94S
WATERLOO       CLOUDY    36  32  85 N9        29.95S WCI  29
$$

IAZ064-065-067-068-078-262300-
   EAST CENTRAL IOWA

CITY           SKY/WX    TMP DP  RH WIND       PRES   REMARKS
DAVENPORT      PTCLDY    49  36  61 SW5       29.95F
IOWA CITY      CLOUDY    47  36  65 CALM      29.96R
MT. PLEASANT * PTCLDY    50  39  66 SW6       29.95R
MUSCATINE *    CLEAR     50  39  66 SW6       29.96R
QUAD CITIES    PTCLDY    51  37  58 S7        29.95S
$$

IAZ062-063-075>077-085>089-095>099-262300-
   SOUTHEAST IOWA

CITY           SKY/WX    TMP DP  RH WIND       PRES   REMARKS
BURLINGTON     CLEAR     52  41  66 S9        29.95S
FAIRFIELD *    CLEAR     50  37  62 CALM      29.94S
FORT MADISON * PTCLDY    54  43  66 S5        29.96R
KEOKUK *       PTCLDY    54  43  66 S7        29.95R
OSKALOOSA *      N/A     41  34  75 N3        29.95R
CENTERVILLE *  MOCLDY    48  41  76 SW6       29.95R
OTTUMWA        CLOUDY    43  36  76 NW8       29.94R
WASHINGTON *   CLEAR     48  41  76 CALM      29.94S
$$

ABBREVIATIONS USED IN REMARKS
   TC - TEMPERATURES IN CELSIUS
  WCI - WIND CHILL INDEX
   HX - HEAT INDEX
  VSB - VISIBILITY
$$



USA.gov is the U.S. government's official web portal to all federal, state and local government web resources and services.